| time (UTC) | temp F | wind direction | speed MPH | gust MPH | rain 1hr in | rain 24hr in | rain mn in | humidity % | barometer mb |
| 20260507163051 | 62 | 221 | 1.0 | 6.0 | 0.00 | 0.17 | 0.00 | 45 | 1006.0 |
| 20260507161602 | 62 | 129 | 1.0 | 4.0 | 0.00 | 0.17 | 0.00 | 43 | 1006.1 |
| 20260507160054 | 61 | 0 | 0.0 | 2.0 | 0.00 | 0.17 | 0.00 | 44 | 1006.4 |
| 20260507154554 | 60 | 123 | 1.0 | 4.0 | 0.00 | 0.17 | 0.00 | 44 | 1006.2 |
| 20260507153109 | 58 | 151 | 1.0 | 5.0 | 0.00 | 0.17 | 0.00 | 52 | 1006.5 |
| 20260507151558 | 60 | 118 | 0.0 | 4.0 | 0.00 | 0.17 | 0.00 | 53 | 1006.7 |
| 20260507150058 | 58 | 0 | 0.0 | 4.0 | 0.00 | 0.17 | 0.00 | 61 | 1006.7 |
| 20260507144553 | 56 | 101 | 0.0 | 3.0 | 0.00 | 0.17 | 0.00 | 63 | 1006.6 |
| 20260507143055 | 55 | 111 | 0.0 | 2.0 | 0.00 | 0.17 | 0.00 | 66 | 1006.7 |
| 20260507141552 | 55 | 113 | 0.0 | 4.0 | 0.00 | 0.17 | 0.00 | 65 | 1006.5 |
| 20260507140053 | 53 | 122 | 0.0 | 3.0 | 0.00 | 0.17 | 0.00 | 72 | 1006.7 |
| 20260507134558 | 54 | 0 | 0.0 | 2.0 | 0.00 | 0.17 | 0.00 | 69 | 1006.6 |
| 20260507133053 | 54 | 118 | 0.0 | 6.0 | 0.00 | 0.17 | 0.00 | 71 | 1006.8 |
| 20260507131551 | 54 | 0 | 0.0 | 4.0 | 0.00 | 0.17 | 0.00 | 68 | 1006.8 |
| 20260507130105 | 53 | 113 | 0.0 | 2.0 | 0.00 | 0.17 | 0.00 | 69 | 1006.9 |
| 20260507124610 | 51 | 0 | 0.0 | 3.0 | 0.00 | 0.17 | 0.00 | 74 | 1006.8 |
| 20260507123105 | 50 | 0 | 0.0 | 3.0 | 0.00 | 0.17 | 0.00 | 77 | 1006.6 |
| 20260507121601 | 49 | 112 | 0.0 | 2.0 | 0.00 | 0.17 | 0.00 | 81 | 1006.8 |
| 20260507120055 | 48 | 0 | 0.0 | 1.0 | 0.00 | 0.17 | 0.00 | 82 | 1006.9 |
| 20260507114554 | 47 | 105 | 0.0 | 3.0 | 0.00 | 0.17 | 0.00 | 84 | 1006.9 |
| 20260507113052 | 47 | 0 | 0.0 | 2.0 | 0.00 | 0.17 | 0.00 | 87 | 1006.5 |
| 20260507111549 | 46 | 0 | 0.0 | 0.0 | 0.00 | 0.17 | 0.00 | 89 | 1006.7 |
| 20260507110054 | 46 | 0 | 0.0 | 0.0 | 0.00 | 0.17 | 0.00 | 89 | 1006.6 |
| 20260507104555 | 46 | 0 | 0.0 | 1.0 | 0.00 | 0.17 | 0.00 | 89 | 1006.3 |
| 20260507103057 | 46 | 173 | 0.0 | 2.0 | 0.00 | 0.17 | 0.00 | 88 | 1006.3 |
| 20260507101601 | 46 | 0 | 0.0 | 1.0 | 0.00 | 0.17 | 0.00 | 89 | 1006.1 |
| 20260507100106 | 46 | 0 | 0.0 | 1.0 | 0.00 | 0.17 | 0.00 | 89 | 1005.9 |
| 20260507094556 | 46 | 0 | 0.0 | 1.0 | 0.00 | 0.17 | 0.00 | 89 | 1006.4 |
| 20260507093057 | 46 | 0 | 0.0 | 2.0 | 0.00 | 0.17 | 0.00 | 88 | 1006.3 |
| 20260507091553 | 46 | 149 | 0.0 | 2.0 | 0.00 | 0.17 | 0.00 | 88 | 1006.4 |
| 20260507090055 | 46 | 0 | 0.0 | 1.0 | 0.00 | 0.17 | 0.00 | 89 | 1006.6 |
| 20260507084559 | 47 | 0 | 0.0 | 1.0 | 0.00 | 0.17 | 0.00 | 90 | 1006.6 |
| 20260507083109 | 47 | 0 | 0.0 | 1.0 | 0.00 | 0.17 | 0.00 | 91 | 1006.2 |
| 20260507081600 | 47 | 0 | 0.0 | 1.0 | 0.00 | 0.17 | 0.00 | 91 | 1006.1 |
| 20260507080100 | 47 | 0 | 0.0 | 1.0 | 0.00 | 0.17 | 0.00 | 91 | 1005.9 |
| 20260507074606 | 48 | 0 | 0.0 | 0.0 | 0.00 | 0.17 | 0.00 | 92 | 1006.3 |
| 20260507073102 | 48 | 0 | 0.0 | 1.0 | 0.00 | 0.17 | 0.00 | 91 | 1006.0 |
| 20260507071553 | 48 | 0 | 0.0 | 2.0 | 0.00 | 0.17 | 0.00 | 91 | 1005.8 |
| 20260507070106 | 48 | 0 | 0.0 | 1.0 | 0.00 | 0.17 | 0.00 | 91 | 1005.8 |
| 20260507064553 | 48 | 0 | 0.0 | 2.0 | 0.00 | 0.17 | 0.00 | 91 | 1005.7 |
| 20260507063051 | 48 | 0 | 0.0 | 1.0 | 0.00 | 0.17 | 0.00 | 91 | 1005.9 |
| 20260507061556 | 48 | 129 | 0.0 | 1.0 | 0.00 | 0.17 | 0.00 | 92 | 1005.6 |
| 20260507060052 | 48 | 0 | 0.0 | 1.0 | 0.00 | 0.17 | 0.00 | 92 | 1005.8 |
| 20260507054551 | 49 | 0 | 0.0 | 0.0 | 0.00 | 0.17 | 0.00 | 92 | 1006.3 |
| 20260507053051 | 49 | 0 | 0.0 | 0.0 | 0.00 | 0.17 | 0.00 | 92 | 1006.0 |
| 20260507051553 | 49 | 0 | 0.0 | 0.0 | 0.00 | 0.17 | 0.00 | 92 | 1006.4 |
| 20260507050057 | 49 | 0 | 0.0 | 1.0 | 0.00 | 0.17 | 0.00 | 91 | 1006.2 |
| 20260507044555 | 49 | 0 | 0.0 | 2.0 | 0.00 | 0.17 | 0.00 | 91 | 1005.9 |
| 20260507043051 | 49 | 0 | 0.0 | 2.0 | 0.00 | 0.17 | 0.00 | 91 | 1006.0 |
| 20260507041553 | 50 | 109 | 0.0 | 2.0 | 0.00 | 0.17 | 0.00 | 91 | 1006.2 |
| 20260507040058 | 51 | 127 | 0.0 | 1.0 | 0.00 | 0.17 | 0.00 | 91 | 1006.0 |
| 20260507034553 | 52 | 0 | 0.0 | 2.0 | 0.02 | 0.17 | 0.17 | 92 | 1005.8 |
| 20260507033054 | 53 | 0 | 0.0 | 1.0 | 0.02 | 0.17 | 0.17 | 92 | 1005.6 |
| 20260507031556 | 54 | 102 | 0.0 | 1.0 | 0.02 | 0.17 | 0.17 | 92 | 1005.4 |
| 20260507030055 | 55 | 0 | 0.0 | 3.0 | 0.02 | 0.17 | 0.17 | 92 | 1005.1 |
| 20260507024606 | 56 | 135 | 1.0 | 4.0 | 0.00 | 0.15 | 0.15 | 92 | 1005.5 |
| 20260507023051 | 56 | 84 | 0.0 | 2.0 | 0.00 | 0.15 | 0.15 | 93 | 1005.0 |
| 20260507021556 | 57 | 0 | 0.0 | 2.0 | 0.00 | 0.15 | 0.15 | 93 | 1004.7 |
| 20260507020108 | 58 | 0 | 0.0 | 0.0 | 0.00 | 0.15 | 0.15 | 94 | 1004.6 |
| 20260507014603 | 58 | 0 | 0.0 | 0.0 | 0.00 | 0.15 | 0.15 | 94 | 1004.5 |
| 20260507013055 | 58 | 0 | 0.0 | 0.0 | 0.00 | 0.15 | 0.15 | 94 | 1004.4 |
| 20260507011555 | 58 | 0 | 0.0 | 0.0 | 0.00 | 0.15 | 0.15 | 93 | 1004.4 |
| 20260507010049 | 58 | 0 | 0.0 | 0.0 | 0.00 | 0.15 | 0.15 | 93 | 1004.4 |
| 20260507004552 | 58 | 0 | 0.0 | 0.0 | 0.00 | 0.15 | 0.15 | 93 | 1004.4 |
| 20260507003055 | 58 | 0 | 0.0 | 1.0 | 0.00 | 0.15 | 0.15 | 93 | 1004.1 |
| 20260507001548 | 58 | 0 | 0.0 | 2.0 | 0.00 | 0.15 | 0.15 | 93 | 1004.1 |
| 20260507000054 | 58 | 0 | 0.0 | 1.0 | 0.00 | 0.15 | 0.15 | 93 | 1004.0 |
| 20260506234602 | 58 | 0 | 0.0 | 1.0 | 0.00 | 0.15 | 0.15 | 93 | 1003.9 |
| 20260506233059 | 58 | 0 | 0.0 | 1.0 | 0.00 | 0.15 | 0.15 | 93 | 1003.9 |
| 20260506231558 | 58 | 0 | 0.0 | 2.0 | 0.00 | 0.15 | 0.15 | 93 | 1003.9 |
| 20260506230100 | 58 | 0 | 0.0 | 2.0 | 0.00 | 0.15 | 0.15 | 93 | 1003.9 |
| 20260506224551 | 58 | 0 | 0.0 | 1.0 | 0.00 | 0.15 | 0.15 | 93 | 1004.0 |
| 20260506223058 | 59 | 0 | 0.0 | 1.0 | 0.01 | 0.15 | 0.15 | 93 | 1004.0 |
| 20260506221553 | 59 | 0 | 0.0 | 1.0 | 0.01 | 0.15 | 0.15 | 93 | 1004.1 |
| 20260506220056 | 59 | 0 | 0.0 | 1.0 | 0.02 | 0.15 | 0.15 | 93 | 1004.2 |
| 20260506214551 | 59 | 0 | 0.0 | 1.0 | 0.03 | 0.15 | 0.15 | 92 | 1004.2 |
| 20260506213103 | 59 | 0 | 0.0 | 6.0 | 0.03 | 0.14 | 0.14 | 92 | 1004.2 |
| 20260506211604 | 59 | 28 | 0.0 | 4.0 | 0.03 | 0.14 | 0.14 | 92 | 1004.2 |
| 20260506210055 | 60 | 0 | 0.0 | 2.0 | 0.03 | 0.13 | 0.13 | 92 | 1004.3 |
| 20260506204559 | 60 | 0 | 0.0 | 1.0 | 0.03 | 0.12 | 0.12 | 92 | 1004.6 |
| 20260506203053 | 60 | 91 | 0.0 | 3.0 | 0.02 | 0.11 | 0.11 | 92 | 1004.6 |
| 20260506201600 | 61 | 39 | 0.0 | 1.0 | 0.03 | 0.11 | 0.11 | 92 | 1004.7 |
| 20260506200050 | 61 | 230 | 0.0 | 2.0 | 0.02 | 0.10 | 0.10 | 92 | 1004.6 |
| 20260506194604 | 61 | 0 | 0.0 | 1.0 | 0.01 | 0.09 | 0.09 | 92 | 1005.1 |
| 20260506193053 | 61 | 0 | 0.0 | 1.0 | 0.02 | 0.09 | 0.09 | 92 | 1005.0 |
| 20260506191553 | 61 | 0 | 0.0 | 0.0 | 0.03 | 0.08 | 0.08 | 91 | 1004.7 |
| 20260506190054 | 61 | 88 | 0.0 | 1.0 | 0.06 | 0.08 | 0.08 | 91 | 1004.9 |
| 20260506184604 | 61 | 0 | 0.0 | 0.0 | 0.08 | 0.08 | 0.08 | 91 | 1005.2 |
| 20260506183100 | 62 | 0 | 0.0 | 1.0 | 0.07 | 0.07 | 0.07 | 90 | 1005.6 |
| 20260506181554 | 62 | 0 | 0.0 | 1.0 | 0.05 | 0.05 | 0.05 | 89 | 1005.7 |
| 20260506180053 | 63 | 0 | 0.0 | 1.0 | 0.02 | 0.02 | 0.02 | 86 | 1006.0 |
| 20260506174551 | 65 | 0 | 0.0 | 2.0 | 0.00 | 0.00 | 0.00 | 80 | 1006.1 |
| 20260506173053 | 67 | 159 | 0.0 | 4.0 | 0.00 | 0.00 | 0.00 | 73 | 1005.9 |
| 20260506171553 | 69 | 0 | 1.0 | 7.0 | 0.00 | 0.00 | 0.00 | 66 | 1005.8 |
| 20260506170109 | 69 | 0 | 0.0 | 3.0 | 0.00 | 0.00 | 0.00 | 68 | 1005.8 |
| 20260506164549 | 69 | 0 | 0.0 | 3.0 | 0.00 | 0.00 | 0.00 | 70 | 1005.9 |